Flag for U.S.A. Weather past 2 weeks in Pierre, South Dakota, U.S.A.

26 °F

Snow. Ice fog.

Feels Like: 18 °F
Forecast: 24 / 29 °F
Wind: 7 mph from Northwest

Location: Pierre Regional Airport

Current Time: Nov 30, 2015 at 6:21:53 PM

Latest Report: Nov 30, 2015 at 4:53 PM

Visibility: 0 mi

Pressure: 29.93 "Hg

Humidity: 96%

Dew point: 25 °F

Location of PierreLocation

Historic Weather in Pierre — Graph


Pierre temperature yesterday

Maximum temperature yesterday: 33 °F (at 11:53 AM)
Minimum temperature yesterday: 27 °F (at 6:53 AM)
Average temperature yesterday: 29 °F

Past Weeks' High & Low Weather Summary

High68 °F (Nov 15, 3:53 PM)100% (Nov 28, 7:53 PM)30.75 "Hg (Nov 28, 7:53 PM)
Low7 °F (Nov 26, 11:53 PM)22% (Nov 19, 1:53 PM)29.20 "Hg (Nov 18, 11:53 AM)
Average30 °F71%30.06 "Hg
* Reported Nov 15 3:53 PM — Nov 30 3:53 PM, Pierre, Weather by CustomWeather, © 2015

Note: Actual official high and low records may vary slightly from our data, if they occured in-between our weather recording intervals... More about our weather records


Pierre weather history for previous 24 hours

Time TempWeatherWind HumidityBarometerVisibility
3:53 PM
Mon, Nov 30
26 °FSnow. Ice fog.7 mph96%29.95 "Hg1 mi
2:49 PM27 °FLight snow. Ice fog.7 mph89%29.97 "Hg1 mi
2:00 PM27 °FLight snow. Ice fog.10 mph89%29.93 "Hg3 mi
1:53 PM27 °FLight snow. Ice fog.9 mph85%29.99 "Hg2 mi
12:53 PM28 °FLight snow. Mostly cloudy.9 mph85%30.02 "Hg9 mi
12:00 PM28 °FLight snow. Ice fog.12 mph89%30.00 "Hg1 mi
11:03 AM27 °FLight snow. Ice fog.7 mph89%30.03 "Hg3 mi
10:53 AM27 °FLight snow. Ice fog.7 mph85%30.10 "Hg1 mi
10:02 AM27 °FLight snow. Ice fog.6 mph92%30.05 "Hg2 mi
9:53 AM27 °FLight snow. Ice fog.7 mph92%30.11 "Hg1 mi
9:03 AM26 °FLight snow. Ice fog.5 mph96%30.06 "Hg2 mi
8:53 AM26 °FLight snow. Ice fog.5 mph96%30.12 "Hg1 mi
7:59 AM27 °FLight snow. Ice fog.7 mph92%30.07 "Hg2 mi
6:53 AM27 °FMostly cloudy.5 mph89%30.11 "Hg10 mi
5:53 AM27 °FOvercast.3 mph89%30.12 "Hg10 mi
5:00 AM28 °FOvercast.5 mph85%30.07 "Hg10 mi
3:53 AM28 °FOvercast.6 mph89%30.14 "Hg10 mi
2:53 AM28 °FOvercast.No wind89%30.16 "Hg10 mi
1:53 AM28 °FMostly cloudy.6 mph85%30.16 "Hg10 mi
12:53 AM28 °FMostly cloudy.3 mph89%30.17 "Hg10 mi
11:53 PM
Sun, Nov 29
28 °FMostly cloudy.3 mph93%30.18 "Hg10 mi
10:53 PM28 °FOvercast.3 mph96%30.19 "Hg10 mi
9:53 PM29 °FOvercast.No wind93%30.21 "Hg10 mi
9:04 PM29 °FMostly cloudy.No wind93%30.16 "Hg10 mi
7:53 PM29 °FOvercast.No wind93%30.23 "Hg10 mi
6:53 PM29 °FMostly cloudy.No wind93%30.24 "Hg10 mi
Weather by CustomWeather, © 2015

See weather overviewHow to use our weather pages